Location: Gand�
(15.0971°N, 12.6564°W)
Time: 14:30:36
(UTC+00:00)

CZ-2C R/B - Pass Details

Date: 07 August 2020
Orbit: 668 x 784 km, 98.2° (Epoch: 20 September)

Event Time Altitude Azimuth Distance (km) Brightness Sun altitude
Rises 04:26:07 0° 16° (NNE) 3,012 6.2 -29.5°
Reaches altitude 10° 04:28:20 10° 19° (NNE) 2,106 5.3 -29.0°
Enters shadow 04:32:36 63° 78° (ENE) 761 2.6 -28.1°
